TimeEDT,TemperatureF,Dew PointF,Humidity,Sea Level PressureIn,VisibilityMPH,Wind Direction,Wind SpeedMPH,Gust SpeedMPH,PrecipitationIn,Events,Conditions,WindDirDegrees,DateUTC
12:15 AM,66.2,60.8,83,29.98,10.0,NE,12.7,-,N/A,,Overcast,50,2013-07-02 04:15:00
12:53 AM,66.0,61.0,84,29.97,10.0,NE,13.8,19.6,N/A,,Overcast,50,2013-07-02 04:53:00
1:53 AM,66.0,62.1,87,29.96,10.0,NE,10.4,-,0.01,,Overcast,40,2013-07-02 05:53:00
2:53 AM,66.0,62.1,87,29.96,10.0,NE,8.1,-,0.00,,Overcast,40,2013-07-02 06:53:00
3:53 AM,66.0,63.0,90,29.95,10.0,NE,6.9,-,N/A,,Overcast,50,2013-07-02 07:53:00
4:53 AM,64.9,63.0,93,29.95,9.0,North,5.8,-,N/A,,Overcast,10,2013-07-02 08:53:00
5:32 AM,66.2,62.6,88,29.97,8.0,NE,6.9,-,N/A,,Overcast,50,2013-07-02 09:32:00
5:53 AM,66.0,63.0,90,29.95,7.0,NE,10.4,-,N/A,,Overcast,50,2013-07-02 09:53:00
6:53 AM,66.0,62.1,87,29.97,6.0,East,6.9,-,N/A,,Overcast,80,2013-07-02 10:53:00
7:45 AM,66.2,62.6,88,29.99,6.0,ENE,9.2,-,N/A,,Overcast,60,2013-07-02 11:45:00
7:53 AM,66.0,63.0,90,29.98,6.0,ENE,8.1,-,N/A,,Overcast,60,2013-07-02 11:53:00
8:21 AM,66.2,62.6,88,30.00,6.0,ENE,8.1,-,N/A,,Overcast,60,2013-07-02 12:21:00
8:53 AM,66.9,63.0,87,29.99,7.0,ENE,9.2,-,N/A,,Overcast,70,2013-07-02 12:53:00
10:26 AM,69.8,62.6,78,30.02,9.0,ENE,6.9,-,N/A,,Overcast,70,2013-07-02 14:26:00
10:53 AM,69.1,64.0,84,30.00,8.0,East,6.9,-,N/A,,Overcast,80,2013-07-02 14:53:00
11:33 AM,71.6,64.4,78,30.02,9.0,Calm,Calm,-,N/A,,Overcast,0,2013-07-02 15:33:00
11:53 AM,72.0,64.0,76,30.00,10.0,ENE,4.6,-,N/A,,Overcast,70,2013-07-02 15:53:00
12:53 PM,73.9,64.9,73,30.00,10.0,NNE,4.6,-,N/A,,Overcast,30,2013-07-02 16:53:00
1:08 PM,75.2,64.4,69,30.02,10.0,ENE,5.8,-,N/A,,Mostly Cloudy,60,2013-07-02 17:08:00
1:53 PM,75.0,64.0,69,29.99,10.0,Calm,Calm,-,N/A,,Mostly Cloudy,0,2013-07-02 17:53:00
2:48 PM,77.0,66.2,69,30.01,10.0,Variable,4.6,-,N/A,,Mostly Cloudy,0,2013-07-02 18:48:00
2:53 PM,79.0,66.9,66,29.98,10.0,NE,6.9,-,N/A,,Mostly Cloudy,50,2013-07-02 18:53:00
3:25 PM,78.8,66.2,65,30.00,10.0,East,8.1,-,N/A,,Mostly Cloudy,90,2013-07-02 19:25:00
3:36 PM,77.0,66.2,69,30.00,10.0,NE,8.1,-,N/A,,Mostly Cloudy,40,2013-07-02 19:36:00
3:53 PM,77.0,66.0,69,29.98,10.0,NE,9.2,-,N/A,,Mostly Cloudy,50,2013-07-02 19:53:00
4:53 PM,77.0,68.0,74,29.97,8.0,NE,12.7,20.7,0.00,Rain,Light Rain,40,2013-07-02 20:53:00
5:08 PM,75.2,69.8,83,29.99,6.0,NE,15.0,-,0.00,Rain-Thunderstorm,Light Thunderstorms and Rain,50,2013-07-02 21:08:00
5:39 PM,75.2,68.0,78,29.99,10.0,NE,16.1,-,0.00,Thunderstorm,Thunderstorm,50,2013-07-02 21:39:00
5:53 PM,75.9,66.9,74,29.96,10.0,NE,18.4,-,0.00,Thunderstorm,Mostly Cloudy,50,2013-07-02 21:53:00
6:16 PM,73.4,66.2,78,29.99,10.0,ENE,12.7,-,N/A,,Overcast,60,2013-07-02 22:16:00
6:53 PM,71.1,66.0,84,29.97,8.0,NE,16.1,-,N/A,,Partly Cloudy,40,2013-07-02 22:53:00
7:26 PM,69.8,64.4,83,29.99,8.0,NE,12.7,-,N/A,Thunderstorm,Mostly Cloudy,50,2013-07-02 23:26:00
7:53 PM,69.1,66.0,90,30.00,7.0,ENE,11.5,23.0,0.00,Thunderstorm,Thunderstorm,70,2013-07-02 23:53:00
8:03 PM,69.8,64.4,83,30.03,6.0,NNE,8.1,-,N/A,Thunderstorm,Overcast,20,2013-07-03 00:03:00
8:25 PM,69.8,64.4,83,30.04,7.0,North,13.8,-,N/A,,Overcast,10,2013-07-03 00:25:00
8:53 PM,69.1,64.9,87,30.01,7.0,ENE,13.8,-,N/A,,Mostly Cloudy,60,2013-07-03 00:53:00
9:03 PM,69.8,64.4,83,30.02,8.0,ENE,15.0,-,N/A,,Mostly Cloudy,60,2013-07-03 01:03:00
9:08 PM,68.0,64.4,88,30.02,7.0,ENE,16.1,-,N/A,Thunderstorm,Mostly Cloudy,60,2013-07-03 01:08:00
9:21 PM,68.0,64.4,88,30.02,7.0,ENE,12.7,-,N/A,Thunderstorm,Mostly Cloudy,60,2013-07-03 01:21:00
9:33 PM,68.0,64.4,88,30.02,7.0,East,11.5,18.4,0.00,Rain-Thunderstorm,Light Thunderstorms and Rain,80,2013-07-03 01:33:00
9:46 PM,64.4,62.6,94,30.05,1.8,West,5.8,17.3,0.14,Rain-Thunderstorm,Heavy Thunderstorms and Rain,280,2013-07-03 01:46:00
9:53 PM,66.0,63.0,90,30.02,1.5,North,11.5,-,0.24,Rain-Thunderstorm,Heavy Thunderstorms and Rain,10,2013-07-03 01:53:00
9:59 PM,66.2,62.6,88,30.04,3.0,North,6.9,-,0.01,Rain-Thunderstorm,Light Thunderstorms and Rain,10,2013-07-03 01:59:00
10:07 PM,66.2,64.4,94,30.04,10.0,NE,6.9,-,0.01,Rain-Thunderstorm,Light Rain,40,2013-07-03 02:07:00
10:30 PM,66.2,64.4,94,30.05,9.0,ENE,6.9,-,0.01,,Overcast,70,2013-07-03 02:30:00
10:53 PM,66.9,64.0,90,30.03,8.0,East,8.1,-,0.01,,Scattered Clouds,80,2013-07-03 02:53:00
11:38 PM,66.2,64.4,94,30.04,7.0,ENE,11.5,-,N/A,,Scattered Clouds,70,2013-07-03 03:38:00
11:48 PM,66.2,64.4,94,30.05,7.0,ENE,10.4,-,N/A,,Mostly Cloudy,70,2013-07-03 03:48:00
11:53 PM,66.9,64.0,90,30.03,7.0,ENE,9.2,-,N/A,,Mostly Cloudy,70,2013-07-03 03:53:00